Flag for U.S.A. Weather past 2 weeks in Topeka, Kansas, U.S.A.

Now
65 °F

Overcast.


Feels Like: 65 °F
Forecast: 52 / 71 °F
Wind: 6 mph from East

Location: Philip Billard Municipal Airport


UV Index: 3 (Moderate)

Visibility: 8 mi


Pressure: 29.99 "Hg

Humidity: 81%

Dew point: 59 °F

Location of TopekaLocation

Historic Weather in Topeka

°F

Topeka temperature yesterday

Maximum temperature yesterday: 79 °F (at 2:53 PM)
Minimum temperature yesterday: 49 °F (at 6:53 AM)
Average temperature yesterday: 65 °F

Past Weeks' High & Low Weather Summary

 TemperatureHumidityPressure
High84 °F (Apr 12, 2:53 PM)100% (Apr 13, 3:53 PM)30.34 "Hg (Apr 13, 3:53 PM)
Low28 °F (Apr 15, 6:53 AM)17% (Apr 9, 4:53 PM)29.38 "Hg (Apr 13, 1:53 PM)
Average56 °F53%29.97 "Hg
* Reported Apr 5 9:53 PM — Apr 20 9:53 PM, Topeka, Weather by CustomWeather, © 2014

Note: Actual official high and low records may vary slightly from our data, if they occured in-between our weather recording intervals... More about our weather records

Advertising

Historic Weather Conditions — Data for Previous 24 hours

 ConditionsComfort  
Time TempWeatherWind HumidityBarometerVisibility
9:53 PM
Apr 20
66 °FLight rain. Overcast.No wind70%30.00 "Hg9 mi
8:53 PM70 °FOvercast.3 mph61%29.98 "Hg10 mi
7:53 PM71 °FOvercast.5 mph59%29.96 "Hg10 mi
6:53 PM72 °FPartly sunny.10 mph55%29.97 "Hg10 mi
5:53 PM72 °FBroken clouds.9 mph57%29.98 "Hg10 mi
4:53 PM77 °FSunny.17 mph44%29.98 "Hg10 mi
3:53 PM77 °FScattered clouds.14 mph45%29.98 "Hg10 mi
2:53 PM77 °FSunny.13 mph45%30.01 "Hg10 mi
1:53 PM77 °FSunny.16 mph44%30.01 "Hg10 mi
12:53 PM79 °FSunny.13 mph42%30.02 "Hg10 mi
11:53 AM77 °FSunny.16 mph44%30.04 "Hg10 mi
10:53 AM74 °FSunny.16 mph46%30.05 "Hg10 mi
9:53 AM70 °FSunny.12 mph53%30.05 "Hg10 mi
8:53 AM66 °FSunny.12 mph56%30.06 "Hg10 mi
7:53 AM62 °FSunny.8 mph62%30.05 "Hg9 mi
6:53 AM60 °FClear.3 mph65%30.06 "Hg8 mi
5:53 AM61 °FClear.7 mph60%30.05 "Hg10 mi
4:53 AM62 °FClear.3 mph58%30.06 "Hg10 mi
3:53 AM64 °FClear.3 mph54%30.06 "Hg10 mi
2:53 AM64 °FClear.7 mph52%30.05 "Hg10 mi
1:53 AM65 °FClear.13 mph51%30.05 "Hg10 mi
12:53 AM61 °FClear.8 mph56%30.05 "Hg10 mi
11:53 PM
Apr 19
62 °FClear.5 mph54%30.06 "Hg10 mi
Weather by CustomWeather, © 2014

See weather overview